This demonstration page uses our WeatherBlox Daily Observations layout. Learn more.

Left ArrowRight Arrow

34.02893, -84.19858

Hourly Observations for August 28, 2020

Temp ( °F °C ) Dew Point ( °F °C ) Humidity (%) Winds ( mph kmh ) Pressure ( in mb ) Visibility ( mi km ) Precip ( " mm )
12:53 am 00:53 Partly Cloudy 78 25.6 74 23.3 87 87 Calm 29.99 1016 10 16 0.00 0.00
1:53 am 01:53 Partly Cloudy 77 25 75 23.9 94 94 Calm 29.98 1015 10 16 0.00 0.00
2:53 am 02:53 Cloudy 77 25 75 23.9 94 94 Calm 29.98 1015 10 16 0.00 0.00
3:53 am 03:53 Mostly Clear 76 24.4 74 23.3 94 94 S 3 6 29.98 1015 10 16 0.00 0.00
4:53 am 04:53 Partly Cloudy 76 24.4 74 23.3 94 94 S 5 7 29.97 1015 10 16 0.00 0.00
5:53 am 05:53 Clear 75 23.9 73 22.8 94 94 S 6 9 29.97 1015 10 16 0.00 0.00
6:53 am 06:53 Mostly Clear 75 23.9 73 22.8 94 94 SSW 3 6 29.98 1015 10 16 0.00 0.00
7:16 am 07:16 Mostly Cloudy 76 24.4 73 22.8 91 91 SW 6 9 30.01 1016 10 16 0.00 0.00
7:45 am 07:45 Cloudy 76 24.4 74 23.3 94 94 SW 9 15 30.01 1016 10 16 0.00 0.00
7:53 am 07:53 Cloudy 76 24.4 74 23.3 94 94 SW 6 9 30.00 1016 10 16 0.00 0.00
8:53 am 08:53 Cloudy 77 25 74 23.3 90 90 SSW 6 9 30.00 1016 10 16 0.00 0.00
9:53 am 09:53 Mostly Cloudy 78 25.6 74 23.3 87 87 S 7 11 30.00 1016 10 16 0.00 0.00
10:53 am 10:53 Cloudy 81 27.2 75 23.9 82 82 S 9 15 30.00 1016 10 16 0.00 0.00
11:53 am 11:53 Mostly Cloudy 81 27.2 73 22.8 77 77 SW 8 13 29.99 1016 10 16 0.00 0.00
12:08 pm 12:08 Mostly Cloudy 82 27.8 73 22.8 74 74 SW 9 15 30.00 1016 10 16 0.00 0.00
12:53 pm 12:53 Mostly Cloudy 82 27.8 73 22.8 74 74 S 9 15 29.98 1015 10 16 0.00 0.00
1:25 pm 13:25 Mostly Cloudy 83 28.3 73 22.8 72 72 S 10 17 29.97 1015 10 16 0.00 0.00
1:53 pm 13:53 Partly Cloudy 84 28.9 73 22.8 70 70 SSW 10 17 29.95 1014 10 16 0.00 0.00
2:53 pm 14:53 Mostly Cloudy 84 28.9 73 22.8 70 70 SSW 10 17 29.93 1014 10 16 0.00 0.00
3:53 pm 15:53 Mostly Cloudy 85 29.4 73 22.8 68 68 S 14 22 29.89 1012 10 16 0.00 0.00
4:53 pm 16:53 Partly Cloudy 84 28.9 72 22.2 67 67 SW 13 20 29.89 1012 10 16 0.00 0.00
5:53 pm 17:53 Mostly Cloudy with Light Rain 83 28.3 74 23.3 74 74 S 10 17 29.88 1012 10 16 0.00 0.00
6:53 pm 18:53 Partly Cloudy 82 27.8 74 23.3 77 77 S 8 13 29.87 1012 10 16 0.00 0.00
7:53 pm 19:53 Mostly Cloudy 81 27.2 74 23.3 79 79 SW 9 15 29.88 1012 10 16 0.00 0.00
8:53 pm 20:53 Clear 79 26.1 74 23.3 85 85 SW 8 13 29.89 1012 10 16 0.00 0.00
9:53 pm 21:53 Clear 78 25.6 72 22.2 82 82 S 10 17 29.88 1012 10 16 0.00 0.00
10:53 pm 22:53 Mostly Clear 77 25 71 21.7 82 82 SW 8 13 29.90 1012 10 16 0.00 0.00
11:53 pm 23:53 Partly Cloudy 76 24.4 71 21.7 85 85 SW 9 15 29.89 1012 10 16 0.00 0.00

Powered by AerisWeather